Wetterdaten: aktuell Montag, 28.11.2022 09:50
Datum Zeit Temp. A. Temp. A. min Feuchte A. Luftdruck Regen Wind Richtung Richtung Sonnenschein Solar Taupunkt Windchill Windben
28.11.2022 09:50 4,5 C 4,4 C 86 % 1013,5 hPa 0,0 l/m 0,0 km/h (0 Bft) S 187 0 min 0 W/m 2,4 C 4,5 C 0,0 km/h (0 Bft)
28.11.2022 09:46 4,4 C 4,4 C 86 % 1013,5 hPa 0,0 l/m 0,0 km/h (0 Bft) S 187 0 min 0 W/m 2,3 C 4,4 C 0,0 km/h (0 Bft)
28.11.2022 09:40 4,4 C 4,4 C 86 % 1013,5 hPa 0,0 l/m 0,0 km/h (0 Bft) S 187 0 min 0 W/m 2,3 C 4,4 C 0,0 km/h (0 Bft)
28.11.2022 09:35 4,4 C 4,4 C 86 % 1013,4 hPa 0,0 l/m 0,0 km/h (0 Bft) S 187 0 min 0 W/m 2,3 C 4,4 C 0,0 km/h (0 Bft)
28.11.2022 09:30 4,4 C 4,4 C 86 % 1013,4 hPa 0,0 l/m 0,0 km/h (0 Bft) S-SW 207 0 min 0 W/m 2,3 C 4,4 C 0,0 km/h (0 Bft)
28.11.2022 09:27 4,4 C 4,4 C 86 % 1013,4 hPa 0,0 l/m 0,0 km/h (0 Bft) S-SW 209 0 min 0 W/m 2,3 C 4,4 C 0,0 km/h (0 Bft)
28.11.2022 09:20 4,4 C 4,3 C 87 % 1013,4 hPa 0,0 l/m 0,3 km/h (0 Bft) SW 223 0 min 0 W/m 2,4 C 4,4 C 4,8 km/h (1 Bft)
28.11.2022 09:15 4,4 C 4,3 C 87 % 1013,5 hPa 0,0 l/m 0,0 km/h (0 Bft) NW 304 0 min 0 W/m 2,4 C 4,4 C 0,0 km/h (0 Bft)
28.11.2022 09:10 4,3 C 4,3 C 87 % 1013,7 hPa 0,0 l/m 0,0 km/h (0 Bft) N 11 0 min 0 W/m 2,3 C 4,3 C 0,0 km/h (0 Bft)
28.11.2022 09:07 4,3 C 4,3 C 86 % 1013,7 hPa 0,0 l/m 0,0 km/h (0 Bft) N-NO 16 0 min 0 W/m 2,2 C 4,3 C 0,0 km/h (0 Bft)
28.11.2022 09:00 4,3 C 4,3 C 86 % 1013,7 hPa 0,0 l/m 0,0 km/h (0 Bft) N-NO 16 0 min 0 W/m 2,2 C 4,3 C 0,0 km/h (0 Bft)
28.11.2022 08:55 4,3 C 4,2 C 86 % 1013,7 hPa 0,0 l/m 0,0 km/h (0 Bft) N-NO 12 0 min 0 W/m 2,2 C 4,3 C 0,0 km/h (0 Bft)
28.11.2022 08:50 4,3 C 4,2 C 85 % 1013,7 hPa 0,0 l/m 0,0 km/h (0 Bft) S 182 0 min 0 W/m 2,0 C 4,3 C 0,0 km/h (0 Bft)
28.11.2022 08:47 4,3 C 4,2 C 85 % 1013,6 hPa 0,0 l/m 0,0 km/h (0 Bft) S 182 0 min 0 W/m 2,0 C 4,3 C 0,0 km/h (0 Bft)
28.11.2022 08:40 4,3 C 4,3 C 85 % 1013,5 hPa 0,0 l/m 0,0 km/h (0 Bft) S 182 0 min 0 W/m 2,0 C 4,3 C 0,0 km/h (0 Bft)
28.11.2022 08:35 4,3 C 4,3 C 85 % 1013,4 hPa 0,0 l/m 0,0 km/h (0 Bft) S 182 0 min 0 W/m 2,0 C 4,3 C 0,0 km/h (0 Bft)
28.11.2022 08:30 4,3 C 4,3 C 85 % 1013,4 hPa 0,0 l/m 0,0 km/h (0 Bft) S 185 0 min 0 W/m 2,0 C 4,3 C 0,0 km/h (0 Bft)
28.11.2022 08:26 4,4 C 4,3 C 85 % 1013,3 hPa 0,0 l/m 0,3 km/h (0 Bft) S 187 0 min 0 W/m 2,1 C 4,4 C 3,2 km/h (1 Bft)
28.11.2022 08:20 4,4 C 4,4 C 85 % 1013,4 hPa 0,0 l/m 0,7 km/h (0 Bft) S-SO 161 0 min 0 W/m 2,1 C 4,4 C 1,6 km/h (1 Bft)
28.11.2022 08:15 4,4 C 4,4 C 84 % 1013,4 hPa 0,0 l/m 0,0 km/h (0 Bft) S-SW 196 0 min 0 W/m 1,9 C 4,4 C 0,0 km/h (0 Bft)
28.11.2022 08:11 4,4 C 4,4 C 84 % 1013,5 hPa 0,0 l/m 0,0 km/h (0 Bft) S-SW 193 0 min 0 W/m 1,9 C 4,4 C 0,0 km/h (0 Bft)
28.11.2022 08:05 4,5 C 4,5 C 84 % 1013,6 hPa 0,0 l/m 0,0 km/h (0 Bft) S-SW 193 0 min 0 W/m 2,0 C 4,5 C 0,0 km/h (0 Bft)
28.11.2022 08:00 4,5 C 4,5 C 84 % 1013,5 hPa 0,0 l/m 0,0 km/h (0 Bft) S-SW 193 0 min 0 W/m 2,0 C 4,5 C 0,0 km/h (0 Bft)
28.11.2022 07:55 4,6 C 4,6 C 84 % 1013,5 hPa 0,0 l/m 0,0 km/h (0 Bft) S-SW 193 0 min 0 W/m 2,1 C 4,6 C 0,0 km/h (0 Bft)
28.11.2022 07:51 4,6 C 4,6 C 84 % 1013,5 hPa 0,0 l/m 0,0 km/h (0 Bft) S-SW 193 0 min 0 W/m 2,1 C 4,6 C 0,0 km/h (0 Bft)
28.11.2022 07:45 4,6 C 4,6 C 84 % 1013,6 hPa 0,0 l/m 0,0 km/h (0 Bft) S-SW 193 0 min 0 W/m 2,1 C 4,6 C 0,0 km/h (0 Bft)
28.11.2022 07:40 4,7 C 4,7 C 83 % 1013,5 hPa 0,0 l/m 0,0 km/h (0 Bft) S-SW 193 0 min 0 W/m 2,1 C 4,7 C 0,0 km/h (0 Bft)
28.11.2022 07:35 4,7 C 4,7 C 83 % 1013,5 hPa 0,0 l/m 0,0 km/h (0 Bft) S-SW 193 0 min 0 W/m 2,1 C 4,7 C 0,0 km/h (0 Bft)
28.11.2022 07:31 4,8 C 4,8 C 83 % 1013,5 hPa 0,0 l/m 0,0 km/h (0 Bft) S-SW 193 0 min 0 W/m 2,2 C 4,8 C 0,0 km/h (0 Bft)
28.11.2022 07:25 4,8 C 4,8 C 83 % 1013,5 hPa 0,0 l/m 0,0 km/h (0 Bft) S 190 0 min 0 W/m 2,2 C 4,8 C 0,0 km/h (0 Bft)
28.11.2022 07:20 4,9 C 4,9 C 83 % 1013,5 hPa 0,0 l/m 0,0 km/h (0 Bft) S 182 0 min 0 W/m 2,3 C 4,9 C 0,0 km/h (0 Bft)
28.11.2022 07:15 4,9 C 4,9 C 82 % 1013,5 hPa 0,0 l/m 0,1 km/h (0 Bft) S 182 0 min 0 W/m 2,1 C 4,9 C 1,6 km/h (1 Bft)
28.11.2022 07:10 4,9 C 4,9 C 82 % 1013,5 hPa 0,0 l/m 1,2 km/h (1 Bft) S-SW 198 0 min 0 W/m 2,1 C 4,9 C 3,2 km/h (1 Bft)
28.11.2022 07:05 5,0 C 5,0 C 82 % 1013,5 hPa 0,0 l/m 0,7 km/h (0 Bft) S-SO 149 0 min 0 W/m 2,2 C 5,0 C 1,6 km/h (1 Bft)
28.11.2022 07:00 5,1 C 5,1 C 82 % 1013,5 hPa 0,0 l/m 0,3 km/h (0 Bft) S-SW 192 0 min 0 W/m 2,3 C 5,1 C 3,2 km/h (1 Bft)
28.11.2022 06:55 5,1 C 5,1 C 81 % 1013,5 hPa 0,0 l/m 0,0 km/h (0 Bft) O-NO 78 0 min 0 W/m 2,1 C 5,1 C 0,0 km/h (0 Bft)
28.11.2022 06:50 5,1 C 5,1 C 81 % 1013,5 hPa 0,0 l/m 0,0 km/h (0 Bft) O-NO 78 0 min 0 W/m 2,1 C 5,1 C 0,0 km/h (0 Bft)
28.11.2022 06:45 5,2 C 5,2 C 81 % 1013,5 hPa 0,0 l/m 0,1 km/h (0 Bft) O-NO 78 0 min 0 W/m 2,2 C 5,2 C 1,6 km/h (1 Bft)
28.11.2022 06:40 5,2 C 5,2 C 81 % 1013,4 hPa 0,0 l/m 0,3 km/h (0 Bft) O 82 0 min 0 W/m 2,2 C 5,2 C 1,6 km/h (1 Bft)
28.11.2022 06:35 5,2 C 5,2 C 80 % 1013,3 hPa 0,0 l/m 0,0 km/h (0 Bft) SO 128 0 min 0 W/m 2,0 C 5,2 C 0,0 km/h (0 Bft)
28.11.2022 06:30 5,3 C 5,3 C 80 % 1013,3 hPa 0,0 l/m 0,2 km/h (0 Bft) SO 128 0 min 0 W/m 2,1 C 5,3 C 1,6 km/h (1 Bft)
28.11.2022 06:25 5,3 C 5,3 C 80 % 1013,2 hPa 0,0 l/m 0,5 km/h (0 Bft) SO 129 0 min 0 W/m 2,1 C 5,3 C 1,6 km/h (1 Bft)
28.11.2022 06:20 5,4 C 5,3 C 80 % 1013,2 hPa 0,0 l/m 0,4 km/h (0 Bft) SO 144 0 min 0 W/m 2,2 C 5,4 C 1,6 km/h (1 Bft)
28.11.2022 06:15 5,4 C 5,4 C 80 % 1013,2 hPa 0,0 l/m 0,5 km/h (0 Bft) O-SO 123 0 min 0 W/m 2,2 C 5,4 C 1,6 km/h (1 Bft)
28.11.2022 06:10 5,4 C 5,4 C 79 % 1013,1 hPa 0,0 l/m 0,0 km/h (0 Bft) S-SW 205 0 min 0 W/m 2,1 C 5,4 C 0,0 km/h (0 Bft)
28.11.2022 06:05 5,4 C 5,4 C 79 % 1013,3 hPa 0,0 l/m 0,0 km/h (0 Bft) N 360 0 min 0 W/m 2,1 C 5,4 C 0,0 km/h (0 Bft)
28.11.2022 06:00 5,4 C 5,4 C 79 % 1013,3 hPa 0,0 l/m 0,0 km/h (0 Bft) N 360 0 min 0 W/m 2,1 C 5,4 C 0,0 km/h (0 Bft)
28.11.2022 05:55 5,4 C 5,4 C 78 % 1013,3 hPa 0,0 l/m 0,5 km/h (0 Bft) NO 45 0 min 0 W/m 1,9 C 5,4 C 1,6 km/h (1 Bft)
28.11.2022 05:50 5,4 C 5,4 C 78 % 1013,4 hPa 0,0 l/m 0,3 km/h (0 Bft) O-NO 57 0 min 0 W/m 1,9 C 5,4 C 1,6 km/h (1 Bft)
28.11.2022 05:45 5,4 C 5,3 C 78 % 1013,4 hPa 0,0 l/m 0,1 km/h (0 Bft) NO 34 0 min 0 W/m 1,9 C 5,4 C 1,6 km/h (1 Bft)
28.11.2022 05:40 5,4 C 5,3 C 77 % 1013,3 hPa 0,0 l/m 0,7 km/h (0 Bft) N-NO 30 0 min 0 W/m 1,7 C 5,4 C 1,6 km/h (1 Bft)
28.11.2022 05:35 5,3 C 5,3 C 77 % 1013,3 hPa 0,0 l/m 1,1 km/h (1 Bft) N-NO 30 0 min 0 W/m 1,6 C 5,3 C 3,2 km/h (1 Bft)
28.11.2022 05:30 5,3 C 5,3 C 76 % 1013,3 hPa 0,0 l/m 2,1 km/h (1 Bft) W-NW 286 0 min 0 W/m 1,4 C 5,3 C 6,4 km/h (2 Bft)
28.11.2022 05:25 5,3 C 5,3 C 77 % 1013,4 hPa 0,0 l/m 1,3 km/h (1 Bft) W-NW 290 0 min 0 W/m 1,6 C 5,3 C 4,8 km/h (1 Bft)
28.11.2022 05:20 5,3 C 5,3 C 78 % 1013,4 hPa 0,0 l/m 0,5 km/h (0 Bft) O 90 0 min 0 W/m 1,8 C 5,3 C 3,2 km/h (1 Bft)
28.11.2022 05:15 5,3 C 5,3 C 79 % 1013,4 hPa 0,0 l/m 1,7 km/h (1 Bft) N-NO 28 0 min 0 W/m 2,0 C 5,3 C 6,4 km/h (2 Bft)
28.11.2022 05:10 5,3 C 5,3 C 79 % 1013,4 hPa 0,0 l/m 0,6 km/h (0 Bft) NO 49 0 min 0 W/m 2,0 C 5,3 C 4,8 km/h (1 Bft)
28.11.2022 05:05 5,3 C 5,3 C 79 % 1013,4 hPa 0,0 l/m 0,0 km/h (0 Bft) NW 319 0 min 0 W/m 2,0 C 5,3 C 1,6 km/h (1 Bft)
28.11.2022 05:00 5,3 C 5,2 C 79 % 1013,4 hPa 0,0 l/m 0,0 km/h (0 Bft) NW 321 0 min 0 W/m 2,0 C 5,3 C 0,0 km/h (0 Bft)
28.11.2022 04:55 5,3 C 5,2 C 79 % 1013,4 hPa 0,0 l/m 0,3 km/h (0 Bft) NW 321 0 min 0 W/m 2,0 C 5,3 C 1,6 km/h (1 Bft)
28.11.2022 04:50 5,2 C 5,1 C 78 % 1013,6 hPa 0,0 l/m 0,4 km/h (0 Bft) N 5 0 min 0 W/m 1,7 C 5,2 C 1,6 km/h (1 Bft)
28.11.2022 04:45 5,2 C 5,1 C 78 % 1013,9 hPa 0,0 l/m 0,5 km/h (0 Bft) S 170 0 min 0 W/m 1,7 C 5,2 C 3,2 km/h (1 Bft)
28.11.2022 04:40 5,1 C 5,1 C 78 % 1013,7 hPa 0,0 l/m 0,6 km/h (0 Bft) O-SO 122 0 min 0 W/m 1,6 C 5,1 C 3,2 km/h (1 Bft)
28.11.2022 04:35 5,1 C 5,1 C 78 % 1014,0 hPa 0,0 l/m 0,3 km/h (0 Bft) S-SW 210 0 min 0 W/m 1,6 C 5,1 C 1,6 km/h (1 Bft)
28.11.2022 04:30 5,1 C 5,0 C 79 % 1013,8 hPa 0,0 l/m 0,6 km/h (0 Bft) SW 217 0 min 0 W/m 1,8 C 5,1 C 3,2 km/h (1 Bft)
28.11.2022 04:25 5,1 C 5,0 C 79 % 1013,7 hPa 0,0 l/m 0,4 km/h (0 Bft) N 355 0 min 0 W/m 1,8 C 5,1 C 1,6 km/h (1 Bft)
28.11.2022 04:20 5,0 C 4,9 C 79 % 1013,6 hPa 0,0 l/m 0,8 km/h (0 Bft) NO 52 0 min 0 W/m 1,7 C 5,0 C 1,6 km/h (1 Bft)
28.11.2022 04:15 4,9 C 4,9 C 80 % 1013,6 hPa 0,0 l/m 1,7 km/h (1 Bft) N-NW 338 0 min 0 W/m 1,7 C 4,9 C 6,4 km/h (2 Bft)
28.11.2022 04:10 4,9 C 4,9 C 80 % 1013,8 hPa 0,0 l/m 0,5 km/h (0 Bft) NO 53 0 min 0 W/m 1,7 C 4,9 C 6,4 km/h (2 Bft)
28.11.2022 04:05 4,9 C 4,8 C 80 % 1013,7 hPa 0,0 l/m 0,0 km/h (0 Bft) SO 139 0 min 0 W/m 1,7 C 4,9 C 0,0 km/h (0 Bft)
28.11.2022 04:00 4,9 C 4,8 C 80 % 1013,8 hPa 0,0 l/m 0,0 km/h (0 Bft) O-SO 118 0 min 0 W/m 1,7 C 4,9 C 0,0 km/h (0 Bft)
28.11.2022 03:55 4,9 C 4,8 C 81 % 1013,3 hPa 0,0 l/m 0,0 km/h (0 Bft) W-SW 249 0 min 0 W/m 1,9 C 4,9 C 1,6 km/h (1 Bft)
28.11.2022 03:50 4,9 C 4,9 C 82 % 1013,7 hPa 0,0 l/m 0,0 km/h (0 Bft) SO 135 0 min 0 W/m 2,1 C 4,9 C 0,0 km/h (0 Bft)
28.11.2022 03:45 4,9 C 4,9 C 82 % 1013,9 hPa 0,0 l/m 0,4 km/h (0 Bft) SO 134 0 min 0 W/m 2,1 C 4,9 C 1,6 km/h (1 Bft)
28.11.2022 03:40 5,0 C 4,9 C 82 % 1013,9 hPa 0,0 l/m 0,7 km/h (0 Bft) S-SO 150 0 min 0 W/m 2,2 C 5,0 C 4,8 km/h (1 Bft)
28.11.2022 03:35 5,0 C 5,0 C 82 % 1014,0 hPa 0,0 l/m 0,0 km/h (0 Bft) S 178 0 min 0 W/m 2,2 C 5,0 C 0,0 km/h (0 Bft)
28.11.2022 03:30 5,1 C 5,1 C 82 % 1014,2 hPa 0,0 l/m 0,0 km/h (0 Bft) S 177 0 min 0 W/m 2,3 C 5,1 C 0,0 km/h (0 Bft)
28.11.2022 03:25 5,1 C 5,1 C 82 % 1014,5 hPa 0,0 l/m 0,0 km/h (0 Bft) S 173 0 min 0 W/m 2,3 C 5,1 C 0,0 km/h (0 Bft)
28.11.2022 03:20 5,1 C 5,1 C 82 % 1014,6 hPa 0,0 l/m 0,0 km/h (0 Bft) S 173 0 min 0 W/m 2,3 C 5,1 C 0,0 km/h (0 Bft)
28.11.2022 03:15 5,2 C 5,2 C 82 % 1014,6 hPa 0,0 l/m 0,0 km/h (0 Bft) S 175 0 min 0 W/m 2,4 C 5,2 C 0,0 km/h (0 Bft)
28.11.2022 03:10 5,2 C 5,2 C 81 % 1014,6 hPa 0,0 l/m 0,0 km/h (0 Bft) S 175 0 min 0 W/m 2,2 C 5,2 C 0,0 km/h (0 Bft)
28.11.2022 03:05 5,2 C 5,2 C 81 % 1014,7 hPa 0,0 l/m 0,0 km/h (0 Bft) S 175 0 min 0 W/m 2,2 C 5,2 C 0,0 km/h (0 Bft)
28.11.2022 03:00 5,3 C 5,3 C 80 % 1014,8 hPa 0,0 l/m 0,0 km/h (0 Bft) S 175 0 min 0 W/m 2,1 C 5,3 C 0,0 km/h (0 Bft)
28.11.2022 02:55 5,3 C 5,3 C 80 % 1014,8 hPa 0,0 l/m 0,0 km/h (0 Bft) S 175 0 min 0 W/m 2,1 C 5,3 C 0,0 km/h (0 Bft)
28.11.2022 02:50 5,3 C 5,3 C 80 % 1014,8 hPa 0,0 l/m 0,0 km/h (0 Bft) S 175 0 min 0 W/m 2,1 C 5,3 C 0,0 km/h (0 Bft)
28.11.2022 02:45 5,4 C 5,3 C 80 % 1014,7 hPa 0,0 l/m 0,0 km/h (0 Bft) S 175 0 min 0 W/m 2,2 C 5,4 C 0,0 km/h (0 Bft)
28.11.2022 02:40 5,4 C 5,3 C 80 % 1014,7 hPa 0,0 l/m 0,0 km/h (0 Bft) S 171 0 min 0 W/m 2,2 C 5,4 C 0,0 km/h (0 Bft)
28.11.2022 02:35 5,4 C 5,4 C 80 % 1014,8 hPa 0,0 l/m 0,0 km/h (0 Bft) S 169 0 min 0 W/m 2,2 C 5,4 C 0,0 km/h (0 Bft)
28.11.2022 02:30 5,4 C 5,4 C 79 % 1014,8 hPa 0,0 l/m 0,0 km/h (0 Bft) S 169 0 min 0 W/m 2,1 C 5,4 C 0,0 km/h (0 Bft)
28.11.2022 02:25 5,4 C 5,4 C 79 % 1014,9 hPa 0,0 l/m 0,0 km/h (0 Bft) S 169 0 min 0 W/m 2,1 C 5,4 C 0,0 km/h (0 Bft)
28.11.2022 02:20 5,4 C 5,4 C 79 % 1015,0 hPa 0,0 l/m 0,0 km/h (0 Bft) S 169 0 min 0 W/m 2,1 C 5,4 C 0,0 km/h (0 Bft)
28.11.2022 02:15 5,4 C 5,4 C 79 % 1015,1 hPa 0,0 l/m 0,0 km/h (0 Bft) S 169 0 min 0 W/m 2,1 C 5,4 C 0,0 km/h (0 Bft)
28.11.2022 02:10 5,4 C 5,4 C 79 % 1015,2 hPa 0,0 l/m 0,0 km/h (0 Bft) S 169 0 min 0 W/m 2,1 C 5,4 C 0,0 km/h (0 Bft)
28.11.2022 02:05 5,5 C 5,4 C 79 % 1015,2 hPa 0,0 l/m 0,1 km/h (0 Bft) S-SO 168 0 min 0 W/m 2,2 C 5,5 C 1,6 km/h (1 Bft)
28.11.2022 02:00 5,4 C 5,4 C 79 % 1015,3 hPa 0,0 l/m 0,0 km/h (0 Bft) S-SO 147 0 min 0 W/m 2,1 C 5,4 C 0,0 km/h (0 Bft)
28.11.2022 01:55 5,4 C 5,4 C 79 % 1015,4 hPa 0,0 l/m 0,0 km/h (0 Bft) SO 138 0 min 0 W/m 2,1 C 5,4 C 0,0 km/h (0 Bft)
28.11.2022 01:50 5,5 C 5,4 C 78 % 1015,4 hPa 0,0 l/m 0,0 km/h (0 Bft) SO 137 0 min 0 W/m 2,0 C 5,5 C 0,0 km/h (0 Bft)
28.11.2022 01:45 5,5 C 5,5 C 78 % 1015,4 hPa 0,0 l/m 0,1 km/h (0 Bft) SO 137 0 min 0 W/m 2,0 C 5,5 C 1,6 km/h (1 Bft)
28.11.2022 01:40 5,5 C 5,5 C 78 % 1015,4 hPa 0,0 l/m 0,2 km/h (0 Bft) SO 137 0 min 0 W/m 2,0 C 5,5 C 1,6 km/h (1 Bft)
28.11.2022 01:35 5,5 C 5,5 C 78 % 1015,2 hPa 0,0 l/m 0,2 km/h (0 Bft) SO 146 0 min 0 W/m 2,0 C 5,5 C 1,6 km/h (1 Bft)
28.11.2022 01:30 5,5 C 5,5 C 78 % 1015,2 hPa 0,0 l/m 0,0 km/h (0 Bft) S-SO 148 0 min 0 W/m 2,0 C 5,5 C 0,0 km/h (0 Bft)
28.11.2022 01:25 5,5 C 5,5 C 78 % 1015,2 hPa 0,0 l/m 0,0 km/h (0 Bft) S-SO 148 0 min 0 W/m 2,0 C 5,5 C 0,0 km/h (0 Bft)
28.11.2022 01:20 5,5 C 5,5 C 78 % 1015,3 hPa 0,0 l/m 0,7 km/h (0 Bft) S-SO 148 0 min 0 W/m 2,0 C 5,5 C 1,6 km/h (1 Bft)
28.11.2022 01:15 5,5 C 5,5 C 78 % 1015,2 hPa 0,0 l/m 0,4 km/h (0 Bft) S-SO 155 0 min 0 W/m 2,0 C 5,5 C 1,6 km/h (1 Bft)
28.11.2022 01:10 5,5 C 5,5 C 78 % 1015,1 hPa 0,0 l/m 0,3 km/h (0 Bft) S 173 0 min 0 W/m 2,0 C 5,5 C 3,2 km/h (1 Bft)
28.11.2022 01:05 5,6 C 5,5 C 78 % 1015,2 hPa 0,0 l/m 0,7 km/h (0 Bft) S-SO 155 0 min 0 W/m 2,1 C 5,6 C 1,6 km/h (1 Bft)
28.11.2022 01:00 5,6 C 5,6 C 78 % 1015,1 hPa 0,0 l/m 1,0 km/h (0 Bft) S-SW 202 0 min 0 W/m 2,1 C 5,6 C 3,2 km/h (1 Bft)
28.11.2022 00:55 5,6 C 5,6 C 78 % 1015,3 hPa 0,0 l/m 0,3 km/h (0 Bft) S 169 0 min 0 W/m 2,1 C 5,6 C 3,2 km/h (1 Bft)
28.11.2022 00:50 5,6 C 5,6 C 78 % 1015,5 hPa 0,0 l/m 0,8 km/h (0 Bft) SO 138 0 min 0 W/m 2,1 C 5,6 C 3,2 km/h (1 Bft)
28.11.2022 00:45 5,6 C 5,6 C 78 % 1015,5 hPa 0,0 l/m 0,2 km/h (0 Bft) S-SW 194 0 min 0 W/m 2,1 C 5,6 C 3,2 km/h (1 Bft)
28.11.2022 00:40 5,6 C 5,6 C 78 % 1015,6 hPa 0,0 l/m 0,0 km/h (0 Bft) S 169 0 min 0 W/m 2,1 C 5,6 C 0,0 km/h (0 Bft)
28.11.2022 00:35 5,6 C 5,6 C 77 % 1015,6 hPa 0,0 l/m 0,1 km/h (0 Bft) S 170 0 min 0 W/m 1,9 C 5,6 C 1,6 km/h (1 Bft)
28.11.2022 00:30 5,6 C 5,6 C 77 % 1015,6 hPa 0,0 l/m 0,2 km/h (0 Bft) S-SW 194 0 min 0 W/m 1,9 C 5,6 C 1,6 km/h (1 Bft)
28.11.2022 00:25 5,7 C 5,6 C 77 % 1015,8 hPa 0,0 l/m 0,3 km/h (0 Bft) S-SW 204 0 min 0 W/m 2,0 C 5,7 C 4,8 km/h (1 Bft)
28.11.2022 00:20 5,6 C 5,6 C 77 % 1015,8 hPa 0,0 l/m 0,6 km/h (0 Bft) S-SW 211 0 min 0 W/m 1,9 C 5,6 C 4,8 km/h (1 Bft)
28.11.2022 00:15 5,7 C 5,7 C 77 % 1015,9 hPa 0,0 l/m 0,2 km/h (0 Bft) S-SW 192 0 min 0 W/m 2,0 C 5,7 C 1,6 km/h (1 Bft)
28.11.2022 00:10 5,7 C 5,7 C 77 % 1016,2 hPa 0,0 l/m 0,7 km/h (0 Bft) S 190 0 min 0 W/m 2,0 C 5,7 C 4,8 km/h (1 Bft)
28.11.2022 00:05 5,7 C 5,7 C 77 % 1016,3 hPa 0,0 l/m 0,8 km/h (0 Bft) S 185 0 min 0 W/m 2,0 C 5,7 C 4,8 km/h (1 Bft)
28.11.2022 00:00 5,7 C 5,7 C 77 % 1016,4 hPa 0,0 l/m 0,0 km/h (0 Bft) S-SW 207 0 min 0 W/m 2,0 C 5,7 C 1,6 km/h (1 Bft)
_ Min-Zeit 08:47 08:47 05:30 06:10 - 00:00 - - - - 05:30 08:30 00:40
Minimum _ 4,2 C 4,2 C 76 % 1013,1 hPa - 0,0 km/h (0 Bft) - - - - 1,4 C 4,3 C 0,0 km/h (0 Bft)
_ Max-Zeit 00:00 00:00 09:10 00:00 00:00 05:30 - - 00:00 00:00 09:15 00:00 04:10
Maximum _ 5,7 C 5,7 C 87 % 1016,4 hPa 0,0 l/m 2,1 km/h
W-NW (1 Bft)
- - 0 min 0 W/m 2,4 C 5,7 C 6,4 km/h
O-NO (2 Bft)
Durchschnitt _ 5,1 C 5,1 C 81 % 1014,1 hPa #0,0 l/m 0,2 km/h (0 Bft) N-NO - #0 min. 0 W/m 2,0 C 5,1 C 1,3 km/h (1 Bft)